Location: Newark
(63.1158°N, 8.1461°E)
Time: 15:00:52
(UTC+00:00)

Envisat - Pass Details

Date: 17 December 2019
Orbit: 764 x 766 km, 98.1° (Epoch: 23 January)

Event Time Altitude Azimuth Distance (km) Brightness Sun altitude
Rises 05:14:31 0° 19° (NNE) 3,251 6.4 -21.7°
Reaches altitude 10° 05:17:15 10° 33° (NNE) 2,319 5.8 -21.4°
Maximum altitude 05:21:25 25° 87° (E) 1,533 5.3 -20.9°
Drops below altitude 10° 05:25:33 10° 142° (SE) 2,306 6.1 -20.4°
Sets 05:28:15 0° 156° (SSE) 3,227 6.8 -20.1°
